User: anonymous   Login
Location: Cherry Springs State Park
(41.6616°N, 77.8240°W)
Time: 07:26:13
(UTC-04:00)
Language:

Cosmos 1437 - Orbit

View from above orbital plane
View from above orbital plane
View from above satellite
View from above satellite

Ground track
Ground track

The orbit data is extracted from the following two-line orbital elements,

1 13770U 83003A   17148.89604750 +.00008342 +00000-0 +14138-3 0  9999
2 13770 081.1561 172.1849 0005573 338.9907 021.1111 15.51340054883254
Epoch (UTC): 28 May 2017 21:30:18
Eccentricity: 0.0005573
inclination: 81.1561°
perigee height: 409 km
apogee height: 416 km
right ascension of ascending node: 172.1849°
argument of perigee: 338.9907°
revolutions per day: 15.51340054
mean anomaly at epoch: 21.1111°
orbit number at epoch: 88325

The dashed part of the orbit path shows where the satellite is in the earth's shadow,  

DLR